[[{"header":{"parameterUnit":"m.s-1","parameterCategory":1,"la1":30.2991,"la2":30.254,"lo1":-89.0895,"lo2":-89.0444,"dy":0.0017,"dx":0.0017,"nx":28,"ny":28,"refTime":"2025-08-29T03:00:00:Z","depth":0,"parameterNumber":2,"parameterNumberName":"U-component_of_WINDS"},"data":[0,0,0,0,0,0,0,0,0,0,0,0,0,0,0,0,0,0,0,0,0,0,0,0,0,0,0,0,0,0,0,0,0,0,0,0,0,0,0,0,0,0,0,0,0,0,0,0,0,0,0,0,0,0,0,0,0,0,3.3828,3.3827,0,3.3741,3.374,3.3739,3.3634,3.3632,3.363,3.3629,3.3533,3.3532,3.3531,0,0,0,0,0,0,0,0,0,0,0,0,0,3.3902,3.3901,3.3828,3.3827,3.3826,3.3741,3.374,3.3738,3.3634,3.3632,3.363,3.3628,3.3533,3.3532,3.3531,0,0,0,0,0,0,0,0,0,0,0,0,0,3.3848,3.3901,3.3828,3.3764,3.3757,3.3741,3.3739,3.3738,3.3634,3.3632,3.363,3.3627,3.3534,3.3532,3.3531,3.3569,0,0,3.3526,3.3525,0,0,0,0,0,0,0,0,3.3851,3.3845,3.3774,3.3768,3.3761,3.3696,3.373,3.3681,3.3635,3.3681,3.3629,3.3626,3.3589,3.3582,3.3571,3.3564,3.356,3.3526,3.3525,3.3524,3.3523,0,0,0,0,0,0,0,3.3855,3.3848,3.3793,3.3774,3.3765,3.3738,3.3728,3.372,3.3649,3.3677,3.3669,3.366,3.3584,3.3573,3.3568,3.3559,3.3526,3.3524,3.3523,3.3523,3.3579,3.3581,0,0,0,0,0,0,3.3869,3.3852,3.3796,3.3791,3.3801,3.3739,3.3727,3.3719,3.3649,3.3636,3.3662,3.3656,3.3577,3.357,3.3564,3.3602,3.3524,3.3522,3.3521,3.3576,3.3579,3.3582,0,0,0,0,0,0,3.3871,3.3865,3.38,3.3819,3.3809,3.374,3.3732,3.3718,3.3707,3.3638,3.3624,3.3664,3.3575,3.3566,3.3569,3.3598,3.3522,3.352,3.3573,3.3577,3.3581,3.3681,0,0,0,0,0,0,3.3873,3.3866,3.388,3.382,3.3808,3.3807,3.3734,3.3719,3.3705,3.3695,3.3636,3.3624,3.3572,3.3572,3.3567,3.3594,3.3519,3.357,3.3575,3.3579,3.3675,3.3688,3.3699,0,0,0,0,0,3.3876,3.3911,3.3882,3.3875,3.3825,3.3809,3.3802,3.3743,3.3708,3.3721,3.3678,3.3625,3.3597,3.3573,3.3567,3.3594,3.3568,3.3574,3.3579,3.3669,3.3685,3.3699,0,0,0,0,0,0,3.3973,3.3901,3.3868,3.3885,3.3854,3.3791,3.3805,3.3762,3.3739,3.373,3.3658,3.3645,3.3656,3.3626,3.36,3.3627,3.3575,3.358,3.3645,3.366,3.3672,3.3676,3.3518,0,0,0,0,0,3.3997,3.3991,3.3929,3.3949,3.3936,3.3875,3.3865,3.3824,3.3788,3.3773,3.373,3.3695,3.3678,3.3668,3.3649,3.3672,3.3656,3.3688,3.37,3.371,3.3713,3.3722,3.3734,3.36,3.36,3.36,0,0,3.4044,3.4005,3.4005,3.3968,3.3939,3.3933,3.3863,3.386,3.3854,3.3772,3.3771,3.3739,3.3696,3.3709,3.3712,3.3684,3.3748,3.3717,3.3726,3.3723,3.3729,3.3742,3.3753,3.3604,3.3603,3.3602,0,0,3.4127,3.4099,3.4112,3.4086,3.4044,3.4004,3.4008,3.3952,3.3928,3.3928,3.3865,3.3858,3.3831,3.3802,3.3785,3.3863,3.3813,3.3859,3.3919,3.3929,3.3939,3.3948,3.3973,3.3983,3.3863,3.3864,3.3864,0,3.419,3.4181,3.4124,3.4124,3.4109,3.4039,3.4051,3.4028,3.3982,3.3972,3.3943,3.3908,3.3875,3.3879,3.3899,3.3888,3.3888,3.3862,3.3943,3.3951,3.3958,3.3981,3.3991,3.3869,3.3868,3.3868,3.3867,0,3.4259,3.4254,3.427,3.4229,3.4217,3.4224,3.4167,3.4161,3.4122,3.4085,3.4085,3.4044,3.4014,3.4014,3.3975,3.4013,3.3996,3.3957,3.3901,3.3978,3.3998,3.4006,3.3877,3.3875,3.3873,3.3872,0,0,3.4394,3.4326,3.4332,3.4313,3.4265,3.4258,3.4263,3.4237,3.4232,3.4205,3.4205,3.4186,3.415,3.413,3.4088,3.4097,3.4158,3.4055,3.4053,3.4072,3.4195,3.4222,3.4233,3.4128,3.413,3.4131,3.4197,0,3.4464,3.4468,3.4419,3.4435,3.4428,3.4364,3.4368,3.4338,3.4305,3.4293,3.4256,3.4243,3.4197,3.4184,3.4191,3.415,3.4181,3.4145,3.4124,3.4124,3.4131,3.4244,3.4272,3.4336,3.4205,3.4207,3.4208,0,3.4545,3.4525,3.4541,3.4493,3.4489,3.4493,3.4466,3.4457,3.4423,3.4398,3.4379,3.4332,3.4332,3.4285,3.4282,3.4258,3.4248,3.4227,3.4228,3.4219,3.4166,3.4234,3.4356,3.4364,3.422,3.4219,3.4218,0,3.4637,3.4614,3.4621,3.4607,3.4553,3.4557,3.4534,3.4498,3.4486,3.4463,3.4454,3.4432,3.4417,3.44,3.4349,3.432,3.4351,3.43,3.4328,3.4329,3.4332,3.4331,3.4449,3.4334,3.4334,3.4334,3.4334,0,3.4718,3.4729,3.4661,3.4665,3.4676,3.4621,3.4633,3.4604,3.4573,3.4569,3.4514,3.451,3.4445,3.4435,3.4395,3.4397,3.4392,3.437,3.4358,3.4372,3.4375,3.436,3.4352,3.4336,3.4336,3.4335,3.4335,0,3.4819,3.4775,3.4777,3.4728,3.4716,3.4726,3.4682,3.4683,3.4649,3.4644,3.464,3.4585,3.457,3.4519,3.4491,3.4464,3.4478,3.4459,3.4489,3.4481,3.451,3.4506,3.4618,3.4629,3.4512,3.4514,3.4515,0,3.4871,3.4878,3.4831,3.4825,3.4806,3.4797,3.4786,3.4734,3.4724,3.4687,3.4692,3.4674,3.4655,3.4635,3.4591,3.4569,3.4546,3.4587,3.4542,3.4556,3.4542,3.454,3.4539,3.4595,3.4596,3.4598,3.4599,0,3.4966,3.4944,3.4931,3.4911,3.49,3.4881,3.4859,3.4858,3.4799,3.4791,3.4777,3.4763,3.4737,3.4718,3.469,3.4665,3.4621,3.4615,3.4619,3.463,3.4646,3.4634,3.4511,3.4611,3.4609,3.4609,3.4608,3.4607,3.504,3.5044,3.5012,3.4999,3.4978,3.496,3.4958,3.4926,3.4913,3.4888,3.4859,3.4848,3.4815,3.4774,3.4753,3.4742,3.4718,3.4726,3.4726,3.4728,3.4733,3.4654,3.4737,3.4737,3.4737,3.4736,3.4736,0,3.5129,3.5106,3.5096,3.5068,3.5059,3.5024,3.4999,3.4992,3.4984,3.4958,3.4943,3.4927,3.4909,3.4867,3.4845,3.4845,3.4825,3.4841,3.4837,3.4832,3.4757,3.4754,3.4858,3.4858,3.4858,3.4858,3.4858,3.4858,3.5173,3.5178,3.5153,3.5147,3.5124,3.5114,3.5103,3.5085,3.5064,3.5049,3.5036,3.501,3.4977,3.4953,3.4936,3.4924,3.4916,3.4938,3.4919,3.4849,3.4837,3.4826,3.4822,3.4938,3.4939,3.4994,3.4994,3.4995]},{"header":{"parameterUnit":"m.s-1","parameterCategory":1,"la1":30.2991,"la2":30.254,"lo1":-89.0895,"lo2":-89.0444,"dy":0.0017,"dx":0.0017,"nx":28,"ny":28,"refTime":"2025-08-29T03:00:00:Z","depth":0,"parameterNumber":3,"parameterNumberName":"V-component_of_WINDS"},"data":[0,0,0,0,0,0,0,0,0,0,0,0,0,0,0,0,0,0,0,0,0,0,0,0,0,0,0,0,0,0,0,0,0,0,0,0,0,0,0,0,0,0,0,0,0,0,0,0,0,0,0,0,0,0,0,0,0,0,0.9933,0.9932,0,0.9917,0.9917,0.9917,0.9883,0.9883,0.9882,0.9881,0.9866,0.9866,0.9867,0,0,0,0,0,0,0,0,0,0,0,0,0,0.9936,0.9936,0.9933,0.9932,0.9932,0.9917,0.9917,0.9917,0.9884,0.9883,0.9882,0.9881,0.9866,0.9866,0.9867,0,0,0,0,0,0,0,0,0,0,0,0,0,0.9929,0.9936,0.9933,0.9914,0.9912,0.9917,0.9917,0.9916,0.9884,0.9883,0.9882,0.9881,0.9866,0.9866,0.9867,0.9889,0,0,0.9868,0.9868,0,0,0,0,0,0,0,0,0.9929,0.9928,0.9917,0.9915,0.9913,0.9901,0.9912,0.9907,0.9884,0.9894,0.9881,0.988,0.9879,0.9878,0.9877,0.9888,0.9887,0.9868,0.9868,0.9868,0.9868,0,0,0,0,0,0,0,0.993,0.9929,0.9926,0.9917,0.9914,0.9907,0.9905,0.9911,0.9892,0.9893,0.9891,0.989,0.9877,0.9877,0.9877,0.9887,0.9868,0.9868,0.9868,0.9868,0.9916,0.9917,0,0,0,0,0,0,0.9933,0.993,0.9927,0.9926,0.9919,0.9908,0.9905,0.9906,0.9892,0.9889,0.989,0.9888,0.9877,0.9876,0.9876,0.9901,0.9868,0.9868,0.9869,0.9915,0.9916,0.9917,0,0,0,0,0,0,0.9933,0.9933,0.9928,0.9927,0.9926,0.9909,0.991,0.9906,0.9906,0.989,0.9887,0.9893,0.9876,0.9875,0.9886,0.99,0.9868,0.9869,0.9914,0.9915,0.9917,0.9951,0,0,0,0,0,0,0.9933,0.9933,0.9941,0.9928,0.9926,0.9937,0.9911,0.9907,0.9906,0.9903,0.9892,0.9889,0.9875,0.9886,0.9886,0.99,0.9869,0.9912,0.9915,0.9916,0.9948,0.9953,0.9957,0,0,0,0,0,0.9933,0.9951,0.9941,0.9941,0.9935,0.9938,0.9937,0.9921,0.9907,0.9915,0.9905,0.9889,0.9899,0.9887,0.9887,0.9901,0.9911,0.9914,0.9916,0.9946,0.9952,0.9957,0,0,0,0,0,0,0.9966,0.9949,0.9938,0.9951,0.9947,0.9933,0.9942,0.9928,0.9927,0.9924,0.9904,0.9902,0.9915,0.9909,0.9897,0.9922,0.9902,0.9905,0.9925,0.9931,0.9935,0.9936,0.9869,0,0,0,0,0,0.9975,0.9978,0.9963,0.9977,0.9975,0.9959,0.996,0.9948,0.9942,0.994,0.993,0.9926,0.9928,0.9929,0.993,0.9948,0.9945,0.9958,0.9962,0.9966,0.9968,0.9978,0.9983,0.9925,0.9925,0.9925,0,0,0.9993,0.9984,0.9987,0.9983,0.9978,0.9982,0.9957,0.9963,0.9966,0.994,0.9949,0.9943,0.9936,0.9951,0.9957,0.9946,0.9984,0.9969,0.9973,0.9972,0.9981,0.9986,0.9991,0.9927,0.9927,0.9926,0,0,1.0028,1.0021,1.0032,1.0028,1.002,1.001,1.0012,1.0001,0.9995,1.0004,0.9985,0.9989,0.9993,0.9989,0.9987,1.0023,1.0008,1.0024,1.0048,1.0057,1.0061,1.0065,1.0078,1.0082,1.0026,1.0027,1.0027,0,1.0051,1.0056,1.0039,1.0046,1.0045,1.0023,1.0034,1.003,1.0024,1.0024,1.0013,1.0017,1.0011,1.0024,1.0033,1.0033,1.0035,1.0024,1.0062,1.0066,1.0069,1.0081,1.0085,1.0028,1.0028,1.0028,1.0028,0,1.0085,1.0089,1.0099,1.0093,1.0093,1.0102,1.0087,1.009,1.0079,1.007,1.0079,1.0072,1.0071,1.0074,1.0063,1.0086,1.0079,1.0066,1.0045,1.0077,1.0087,1.0092,1.0031,1.0031,1.003,1.003,0,0,1.0138,1.0123,1.0127,1.0124,1.0115,1.0118,1.0127,1.0126,1.0129,1.0126,1.0132,1.0136,1.0124,1.0122,1.0111,1.012,1.0148,1.0105,1.0104,1.0112,1.0172,1.0182,1.0187,1.0139,1.0139,1.014,1.0173,0,1.0169,1.0182,1.0168,1.0184,1.0188,1.0168,1.0175,1.0171,1.0164,1.0166,1.0158,1.0161,1.0145,1.0144,1.0151,1.0143,1.0159,1.014,1.0144,1.0145,1.0145,1.0193,1.0202,1.0234,1.0177,1.0177,1.0178,0,1.0207,1.0206,1.0222,1.0213,1.0214,1.0221,1.0219,1.0222,1.0218,1.0212,1.0211,1.0197,1.0206,1.0187,1.0199,1.0186,1.0187,1.0184,1.0184,1.0183,1.0162,1.0192,1.0243,1.0247,1.0184,1.0184,1.0183,0,1.0243,1.0246,1.0256,1.0254,1.0244,1.0249,1.0245,1.0239,1.024,1.0239,1.024,1.024,1.024,1.0241,1.0228,1.0216,1.0241,1.0222,1.0236,1.0237,1.0241,1.0241,1.0293,1.0244,1.0244,1.0244,1.0244,0,1.0279,1.029,1.0272,1.0278,1.0289,1.0274,1.0286,1.028,1.0276,1.0281,1.0264,1.0269,1.0253,1.0257,1.0248,1.0258,1.0259,1.0254,1.0251,1.0255,1.0255,1.0254,1.0251,1.0245,1.0245,1.0245,1.0245,0,1.032,1.0308,1.0318,1.0308,1.0306,1.0315,1.0306,1.0312,1.0304,1.0311,1.0312,1.0299,1.0303,1.0291,1.0293,1.0287,1.0302,1.0297,1.0304,1.0301,1.0317,1.0315,1.0368,1.0375,1.0323,1.0324,1.0324,0,1.0343,1.035,1.0342,1.0344,1.0341,1.0344,1.0345,1.0331,1.0333,1.0329,1.0335,1.0337,1.0338,1.0345,1.0337,1.0338,1.0332,1.0351,1.0332,1.0336,1.0331,1.033,1.0331,1.0354,1.0355,1.0355,1.0356,0,1.0384,1.0379,1.038,1.038,1.0382,1.0381,1.0379,1.0382,1.0368,1.037,1.0374,1.0375,1.0377,1.038,1.038,1.0376,1.0364,1.0362,1.0365,1.0368,1.0372,1.0369,1.0313,1.036,1.036,1.0359,1.0359,1.0359,1.0416,1.0422,1.0417,1.042,1.0417,1.0416,1.0421,1.0414,1.0417,1.0418,1.041,1.0415,1.0412,1.041,1.0408,1.0413,1.0404,1.0409,1.041,1.0411,1.0414,1.0372,1.0413,1.0413,1.0413,1.0413,1.0412,0,1.0456,1.0452,1.0455,1.0453,1.0456,1.0444,1.0442,1.0445,1.045,1.0448,1.0449,1.0454,1.0457,1.045,1.0452,1.0457,1.0451,1.0458,1.0456,1.0456,1.0421,1.0418,1.0462,1.0462,1.0462,1.0462,1.0462,1.0462,1.0477,1.0486,1.0481,1.0489,1.0486,1.0491,1.0491,1.049,1.0488,1.0494,1.0497,1.0492,1.0488,1.049,1.0492,1.049,1.0491,1.05,1.0495,1.0463,1.0458,1.0453,1.045,1.05,1.05,1.0529,1.0529,1.053]}]]